Starlink 35954

operational
NORAD ID: 66885 Int'l Des: 2025-283 Owner: SPXS Country: US Constellation: starlink
LEOCIRCULAR

Über Starlink 35954

Beschreibung wird geladen...

Live-Position

3D-Globus wird geladen...

Nächste Überflüge

Höhenverlauf

Altitude vs Time

uPlot chart will show altitude changes over time

Zweizeiliger Elementsatz

1 66885U 25283H 25347.58336806 -.01272484 47661-3 -36417-2 0 9993
2 66885 53.1553 69.6714 0000930 61.2767 305.2143 15.92568178 2564
Epoch: 13. Dez. 2025 • Age: 20 hours

Aktueller Status

Höhe 306.6 km
Geschwindigkeit 7.73 km/s
Subsatellitenpunkt 53.21°N, 72.27°W
Startdatum 4. Dez. 2025
Alter 9 days
Typ internet

Technische Details

Klassifizierung Payload
Masse 575.00 kg
Trockenmasse 530.00 kg
Gesamtmasse 575.00 kg
Länge 0.30 m
Durchmesser 4.10 m
Spannweite 29.00 m
Form Box + pan
Hersteller SPXS
Bus-Typ Starlink V2MO
Phasenstatus In Orbit
Besitzer/Staat SPXS/US

Große Konstellationen

Loading constellations...